Tracking 35055 objects as of 18-Aug-2026
HD Live streaming from Space Station
objects crossing your sky now

STARLINK-32413

Track STARLINK-32413 now!
10-day predictions
STARLINK-32413 is classified as:


NORAD ID: 61590
Int'l Code: 2024-187S
Launch date: October 18, 2024
Source: United States (US)
Launch site: AIR FORCE EASTERN TEST RANGE (AFETR)
Your satellite tracking list
Your tracking list is empty




NASA's NSSDC Master Catalog

Two Line Element Set (TLE):
1 61590U 24187S   26229.47329649  .00000635  00000-0  29936-4 0  9995
2 61590  53.1609  35.1322 0001088  89.0403 271.0725 15.34391292103742
Source of the keplerian elements: AFSPC